Regional Weather Roundup
Issued by NWS

Home | Current Version | Previous Version | Text Only | Print | Product List | Glossary Off
Versions: 1 2 3 4 5 6 7 8 9 10 11 12 13 14 15 16 17 18 19 20 21 22 23 24 25 26 27 28 29 30 31 32 33 34 35 36 37 38 39 40 41 42 43 44 45 46 47 48 49 50

000
ASUS44 KMEG 290410
RWRTN
TENNESSEE HOURLY STATE WEATHER ROUNDUP
NATIONAL WEATHER SERVICE MEMPHIS TN
1100 PM CDT THU JUL 28 2016

TNZ002-004-019-021-049-052-054-088>092-290500-
WEST TENNESSEE

CITY           SKY/WX    TMP DP  RH WIND       PRES   REMARKS
MEMPHIS INTL   MOCLDY    80  75  84 SW8       29.96R
NWS MEMPHIS      N/A     79 N/A N/A MISG        N/A
JACKSON        PTCLDY    78  76  93 SW8       29.94F
DYERSBURG      CLOUDY   N/A N/A N/A MISG        N/A
UNION CITY     CLEAR     73  72  94 CALM      29.92S
PARIS            N/A     75  73  94 SW5       29.94S
LEXINGTON      CLEAR     75  73  94 S6        29.94S
$$

TNZ008-025-027-028-033-062-065-066-290500-
NORTH MIDDLE TENNESSEE

CITY           SKY/WX    TMP DP  RH WIND       PRES   REMARKS
NASHVILLE      MOCLDY    77  74  90 S3        29.96R
CLARKSVILLE    MOCLDY    79  75  87 SW3       29.93S
SMYRNA         CLEAR     77  74  90 VRB3      29.96S
COOKEVILLE     CLOUDY    75  73  94 CALM      29.98S
CROSSVILLE     PTCLDY    70  69  97 CALM      30.03F
$$

TNZ061-075-076-078-094-096-097-290500-
SOUTH MIDDLE TENNESSEE

CITY           SKY/WX    TMP DP  RH WIND       PRES   REMARKS
FAYETTEVILLE   CLOUDY    73  72  94 SW3       30.00F
TULLAHOMA      CLOUDY    72  72 100 S5        30.01F
WINCHESTER     CLOUDY    72  72 100 CALM      30.01F
MCMINNVILLE    PTCLDY    73  73 100 S3        30.00S
COLUMBIA       CLOUDY   N/A N/A N/A SW8       29.96S
SHELBYVILLE    PTCLDY    73  73 100 S5        29.99S
$$

TNZ017-018-042-046-047-290500-
NORTHEAST TENNESSEE

CITY           SKY/WX    TMP DP  RH WIND       PRES   REMARKS
TRI CITIES     CLOUDY    71  69  93 W6        29.98R
ELIZABETHTON     N/A     72  70  94 VRB5      29.97S
$$

TNZ012-013-036-069-073-074-290500-
CENTRAL EAST TENNESSEE

CITY           SKY/WX    TMP DP  RH WIND       PRES   REMARKS
KNOXVILLE      LGT RAIN  74  72  93 SW7       29.97S
OAK RIDGE      CLOUDY    74  71  91 CALM      29.99S
GATLINBURG     CLOUDY    73  72  94 W3        29.98R
MORRISTOWN     CLEAR     72  70  94 CALM      29.98S
$$

TNZ083-085-099-290500-
SOUTHEAST TENNESSEE

CITY           SKY/WX    TMP DP  RH WIND       PRES   REMARKS
CHATTANOOGA    CLOUDY    76  70  82 SW7       29.99S
$$

SKY/WX REPORTED AS FAIR MEANS FEW OR NO CLOUDS BELOW
12 THOUSAND FEET.




USA.gov is the U.S. government's official web portal to all federal, state and local government web resources and services.